Location: Austin
(30.3000°N, 97.7500°W)
Time: 07:34:16
(UTC-05:00)

ALOS - Pass Details

Date: 16 June 2025
Orbit: 664 x 666 km, 98.1° (Epoch: 08 July)

Event Time Altitude Azimuth Distance (km) Brightness Sun altitude
Rises 04:08:08 0° 11° (N) 3,002 6.6 -24.5°
Reaches altitude 10° 04:10:22 10° 11° (N) 2,087 5.6 -24.2°
Maximum altitude 04:14:56 85° 283° (WNW) 670 2.1 -23.6°
Enters shadow 04:15:17 75° 214° (SSW) 688 2.0 -23.5°
